Home > Weather > Córdoba > Past weeks

Flag for Spain Past Weather in Córdoba, Spain — Yesterday and Last 2 Weeks

Now
70 °F

Sunny.


Feels Like: 70 °F
Forecast: 68 / 95 °F
Wind: No wind

Location: Cordoba / Aeropuerto

Current Time: Jun 27, 2016 at 9:53:27 AM

Latest Report: Jun 27, 2016 at 9:00 AM


Visibility: 10 mi

Pressure: 30.09 "Hg

Humidity: 69%

Dew Point: 59 °F

Location of CórdobaLocation

Past Weather in Córdoba — Graph

°F

Córdoba Temperature Yesterday

Maximum temperature yesterday: 88 °F (at 5:00 PM)
Minimum temperature yesterday: 61 °F (at 6:30 AM)
Average temperature yesterday: 74 °F

High & Low Weather Summary for the Past Weeks

 TemperatureHumidityPressure
High99 °F (Jun 13, 4:00 PM)83% (Jun 25, 6:00 AM)30.27 "Hg (Jun 25, 6:00 AM)
Low55 °F (Jun 17, 7:00 AM)12% (Jun 22, 3:00 PM)29.74 "Hg (Jun 15, 5:00 PM)
Average80 °F40%30.00 "Hg
* Reported Jun 12 8:00 AM — Jun 27 8:00 AM, Córdoba, Weather by CustomWeather, © 2016

Note: Actual official high and low records may vary slightly from our data, if they occured in-between our weather recording intervals... More about our weather records

Advertising

Córdoba Weather History for the Previous 24 Hours

Scroll right to see more
 ConditionsComfort  
Time TempWeatherWind HumidityBarometerVisibility
8:00 AM
Mon, Jun 27
64 °FSunny.No wind73%30.07 "Hg10 mi
7:30 AM63 °FMild.1 mph77%30.07 "HgN/A
7:00 AM63 °FMild.1 mph83%30.07 "HgN/A
6:30 AM64 °FMild.No wind73%30.07 "HgN/A
6:00 AM64 °FMild.1 mph73%30.07 "HgN/A
5:30 AM64 °FMild.No wind73%30.04 "HgN/A
5:00 AM66 °FMild.No wind68%30.04 "HgN/A
4:30 AM66 °FMild.2 mph68%30.04 "HgN/A
4:00 AM64 °FMild.3 mph73%30.04 "HgN/A
3:30 AM68 °FMild.1 mph64%30.07 "HgN/A
3:00 AM68 °FMild.2 mph64%30.07 "HgN/A
2:30 AM68 °FMild.3 mph64%30.07 "HgN/A
2:00 AM70 °FMild.7 mph60%30.07 "HgN/A
1:30 AM70 °FMild.3 mph57%30.07 "HgN/A
1:00 AM72 °FMild.7 mph53%30.07 "HgN/A
12:30 AM72 °FMild.7 mph50%30.04 "HgN/A
12:00 AM72 °FMild.2 mph53%30.04 "HgN/A
11:00 PM
Sun, Jun 26
72 °FMild.3 mph53%30.01 "HgN/A
10:30 PM75 °FMild.5 mph44%30.01 "HgN/A
10:00 PM77 °FWarm.8 mph42%29.98 "HgN/A
9:30 PM79 °FPleasantly warm.9 mph39%29.98 "HgN/A
9:00 PM81 °FPleasantly warm.7 mph37%29.95 "HgN/A
8:30 PM81 °FPleasantly warm.12 mph37%29.95 "HgN/A
8:00 PM84 °FPleasantly warm.12 mph37%29.95 "HgN/A
7:30 PM84 °FPleasantly warm.13 mph37%29.95 "HgN/A
7:00 PM86 °FPleasantly warm.12 mph35%29.95 "HgN/A
6:00 PM88 °FPleasantly warm.9 mph33%29.95 "HgN/A
5:30 PM86 °FPleasantly warm.13 mph38%29.98 "HgN/A
5:00 PM88 °FPleasantly warm.12 mph35%29.95 "HgN/A
4:30 PM86 °FPleasantly warm.10 mph35%29.95 "HgN/A
4:00 PM86 °FPleasantly warm.12 mph31%29.98 "HgN/A
3:30 PM84 °FPleasantly warm.10 mph35%29.98 "HgN/A
3:00 PM82 °FPassing clouds.10 mph42%29.98 "HgN/A
2:30 PM84 °FPassing clouds.10 mph40%29.98 "HgN/A
2:00 PM81 °FPassing clouds.9 mph48%29.98 "HgN/A
1:00 PM79 °FPassing clouds.7 mph54%29.98 "HgN/A
12:30 PM75 °FSunny.3 mph57%30.01 "Hg10 mi
12:00 PM75 °FPassing clouds.6 mph57%29.98 "HgN/A
11:30 AM73 °FPassing clouds.6 mph61%29.98 "HgN/A
11:00 AM73 °FPassing clouds.5 mph61%29.98 "HgN/A
10:30 AM72 °FPassing clouds.6 mph65%30.01 "HgN/A
10:00 AM70 °FSunny.2 mph69%30.01 "Hg10 mi
9:30 AM68 °FSunny.1 mph73%29.98 "Hg10 mi
9:00 AM66 °FSunny.2 mph73%29.98 "Hg10 mi
Weather by CustomWeather, © 2016

See weather overviewHow to use our weather pages